sat.trackr.live / text

‹ back to catalog

STARLINK-35190

NORAD 65663 · 2025-211M

PAYLOAD ACTIVE UNKNOWN

§ Identity

Operator
Country
US
Launch date
2025-09-19
Launch site
AFWTR
Launch vehicle
Mass (kg)
RCS (m²)

Purposes: comms

External: N2YO · Heavens-Above · Gunter

§ Orbital elements

Epoch: 2026-09-20T08:31:38.704512Z

Period
93.91 min
Inclination
97.2847°
Eccentricity
0.0000959
Mean motion
15.33444754 rev/d
Perigee alt
464.9 km
Apogee alt
466.2 km
Semi-major
6,843.7 km
B*
2.2157e-4
RAAN
303.6237°
Arg perigee
107.0675°
Mean anomaly
253.0673°
Rev number
5,650

§ Raw data

STARLINK-351901 65663U 25211M   26263.35530908  .00007085  00000+0  22157-3 0  99982 65663  97.2847 303.6237 0000959 107.0675 253.0673 15.33444754 56500

JSON: /api/v1/satellites/65663 · /tle

For live sub-satellite position, see the globe view (requires WebGL).

§ Visibility from observer

Set your observer location to see the next 7 days of passes ≥ 10°. The values pass through the URL so the page stays shareable.

No JS? Fill the form by hand. The geolocation button needs JavaScript.